sat.trackr.live / text

‹ back to catalog

VEGAFLY-1

NORAD 68430 · 2026-067Q

PAYLOAD ACTIVE UNKNOWN

§ Identity

Operator
Country
VTNM
Launch date
2026-03-30
Launch site
AFWTR
Launch vehicle
Mass (kg)
RCS (m²)

External: N2YO · Heavens-Above · Gunter

§ Orbital elements

Epoch: 2026-09-19T16:05:02.610240Z

Period
94.72 min
Inclination
97.4590°
Eccentricity
0.0002225
Mean motion
15.20223844 rev/d
Perigee alt
503.6 km
Apogee alt
506.7 km
Semi-major
6,883.3 km
B*
2.1773e-4
RAAN
219.9704°
Arg perigee
68.7962°
Mean anomaly
291.3511°
Rev number
2,629

§ Raw data

VEGAFLY-11 68430U 26067Q   26262.67016910  .00004651  00000+0  21773-3 0  99982 68430  97.4590 219.9704 0002225  68.7962 291.3511 15.20223844 26290

JSON: /api/v1/satellites/68430 · /tle

For live sub-satellite position, see the globe view (requires WebGL).

§ Visibility from observer

Set your observer location to see the next 7 days of passes ≥ 10°. The values pass through the URL so the page stays shareable.

No JS? Fill the form by hand. The geolocation button needs JavaScript.

§ Radio — SatNOGS DB

ModeDescriptionDownlinkUplink
FM S-band telemetry 2.219 GHz

1 transmitter · refreshed weekly from db.satnogs.org